Погода в Камышине

Хотите узнать прогноз погоды в Камышине? Тогда Вам сюда: Погода в Камышине

Поиск расширенной информации на нашем сайте:

Полезная информация:

Новости сайта



02.01.2020
Опубликован Долгосрочный прогноз погоды по городам России и ближнего зарубежья на январь 2020 года.
Карты: Прогноз на январь и февраль 2020 года, Сравнение прогнозируемой аномалии приземной температуры воздуха на январь 2020 года по разным моделям.




Погода в Камышине - сегодня

Время (UTC), дата Ветер
(°,м/с) 
Видим.   Явления Облачность Т
(°С)
Тd
(°С)
f(%) Тe
(°С)
Pmin
(гПа)
dP
(гПа)
Po
(мм)
O2
(г/м3)
Тmin Tmax R s Состояние
почвы
00 19.01.20 280 (З) 10 км    9/5 300 м средняя 
[Sc|Ac trans]
+0.1 -1.4 90 -1  1030.4  0.4  761  307           
03 19.01.20 270 (З) 10 км    9/5 300 м средняя 
[Sc|Ac trans]
-0.1 -1.7 89 -1  1030.6  0.2  761  307  -0.2      равномерный
мокрый или
старый снег
100% 
06 19.01.20 270 (З) 10 км    10/10 300 м 
[St]
+0.2 -2.1 85 -1  1031.4  0.8  762  307  -0.4         
09 19.01.20 250 (З) 10 км    10/10 600 м 
[Sc]
+1.6 -3 71 1031  -0.3  762  305           
12 19.01.20 270 (З) 10 км    10/10 600 м 
[Sc]
+0.9 -2.7 77 -1  1030.8  -0.2  761  306           
15 19.01.20 270 (З) 20000 м    9/6 600 м средняя 
[Sc|Ac trans]
+0.4 -4.5 70 -2  1031.2  0.3  762  307    +1.7       
18 19.01.20 270 (З) 20000 м    8/3 600 м средняя 
[Sc|Ac trans]
-0.1 -4.7 71 -3  1031.3  762  308           
21 19.01.20 280 (З) 20000 м    9/3 600 м средняя 
[Sc|Ac trans]
-1.1 -5 75 -4  1031.2  -0.2  762  309           
00 20.01.20 280 (З) 7-10{10}  20000 м    10/8 600 м средняя 
[Sc|Ac As]
-2.2 -5.1 80 -7  1030.7  -0.5  761  310           
03 20.01.20 290 (З) 6{10}  10 км    10/8 600 м средняя 
[Sc|Ac As]
-2.6 -5.2 82 -7  1030.2  -0.5  761  310  -2.6      равномерный
мокрый или
старый снег
100% 
06 20.01.20 280 (З) 6{10}  10 км    10/10 300 м 
[St]
-3.3 -5.5 85 -7  1029.4  -0.8  760  311  -3.4         
09 20.01.20 300 (СЗ) 5{13}  10 км    10/10 300 м 
[St]
-3.9 -6.3 83 -8  1029  -0.5  760  311           
12 20.01.20 280 (З) 5{10}  10 км    10/10 300 м 
[St]
-3.6 -5.9 84 -7  1027.9  -1  759  311           
15 20.01.20 300 (СЗ) 10 км    10/10 300 м 
[St]
-2.9 -5 85 -7  1027.2  -0.6  759  310    -2.6       
18 20.01.20 280 (З) 10 км    10/10 300 м 
[St]
-2.7 -4.6 87 -6  1026.2  -1  758  309           
21 20.01.20 270 (З) 10 км    10/10 300 м 
[St]
-2.2 -4.1 87 -5  1025  -1.2  757  308           
00 21.01.20 280 (З) 10 км    10/10 300 м 
[St]
-1.5 -3.5 86 -4  1023.7  -1.2  756  307           
03 21.01.20 270 (З) 6{10}  10 км    10/10 300 м 
[St]
-0.8 -3 85 -4  1022.1  -1.6  755  305  -3      равномерный
мокрый или
старый снег
100% 
06 21.01.20 280 (З) 10 км    10/10 300 м 
[St]
-0.7 -2.7 86 -4  1021  -1.1  754  305           
09 21.01.20 270 (З) 6-10{10}  10 км    10/10 300 м 
[St]
+0.1 -2.2 84 -3  1019.3  -1.6  753  303           
12 21.01.20 270 (З) 8-12{13}  10 км    10/10 300 м 
[Sc]
+0.1 -3.4 77 -4  1017.5  -1.8  752  303           
15 21.01.20 260 (З) 8-12{13}  20000 м    10/10 600 м 
[Sc]
-0.6 -4.1 77 -5  1014.7  -2.7  749  303    +0.5       
18 21.01.20 230 (ЮЗ) 7-12{12}  10 км  в посл. час ливневой снег  10/10 300 м 
[St]
-1.2 -3 88 -5  1011.6  -3.1  747  303           
21 21.01.20 260 (З) 9-13{15}  4000 м  позёмок{ливн. осадки}  10/10 200 м 
[St]
-0.4 -2.2 88 -5  1007.9  -3.5  744  301           
00 22.01.20 270 (З) 9-15{18}  4000 м  дымка{ливн. осадки}  10/10 200 м 
[St]
-0.1 -1.7 89 -5  1004.7  -3.2  742  299           
Время (UTC), дата Ветер
(°,м/с) 
Видим.   Явления Облачность Т
(°С)
Тd
(°С)
f(%) Тe
(°С)
Pmin
(гПа)
dP
(гПа)
Po
(мм)
O2
(г/м3)
Тmin Tmax R s Состояние
почвы

Для получения пояснительной информации подведите курсор к названию столбца.

ПОГОДА в Камышине - архив

Всё, что Вы хотите узнать о погоде в Камышине - удобно и подробно!

Выберите нужную дату (начиная с 1 января 2019* года) и нажмите кнопку "Найти".
Будут отображены архивные сводки погоды по пункту Камышин, начиная с указанной даты.


Отображать данные в формате CSV (для использования в таблицах Excel)


Внимание! Наш архив погоды предназначен исключительно для личного некоммерческого использования в познавательных целях. Если Вам необходимы официальные справки о состоянии погоды (для производственных, юридических, коммерческих и т.п. целей), обращайтесь в органы Росгидромета.

*Примечание: данная дата относится к архиву по метеостанциям СССР (Россия, СНГ, Балтия).
Архив по метеостанциям Зарубежной Европы и Азии (кроме Китая) хранится 10 дней, по другим регионам земного шара (Китай, Африка, Америка, Австралия, Океания) - 1 день.

Камышин - район местоположения метеостанции


Название, широта, долгота, высота метеостанции:
Камышин 50.1°ш. 45.4°д. 119 м над ур. моря [Российская Федерация]

Дополнительная информация

В oтличие oт бoльшинства пoгoдных сайтoв мы публикуем пoдрoбную метеoинфoрмацию в детальнoм прoфессиoнальнoм фoрмате.

Характеристики температуры и влажнoсти вoздуха измеряются на высoте 2 м в тени вдали oт зданий и деревьев.
Скoрoсть ветра измеряется на высoте 10 м (на урoвне рoста челoвека скoрoсть ветра ниже в 1.5-2 раза). Если метеoстанция нахoдится в гoрoде или в лесу, тo скoрoсть ветра занижена на 2-4 м/с пo сравнению с oткрытым местoм. Скoрoсть ветра над акватoриями крупных рек и oзёр, а также на вершинах хoлмoв на 2-5 м/с выше, чем в oбычных услoвиях.
Атмoсфернoе давление в разных тoчках местнoсти мoжет значительнo oтличаться oт давления на метеoстанции, в зависимoсти oт услoвий рельефа (при пoдъёме на 10 м давление пoнижается примернo на 1 мм рт.ст.).